Powrót do katalogu

STARLINK-36080

AktywnyŁącznośćVLEO
NORAD 66801·PAYLOAD·🇺🇸 United States

Wystrzelony Dec 1, 2025 z Cape Canaveral Space Force Station

Loading…

Następne Przeloty (najbliższe 24 godziny)

TLE

ŚwieżeSource: CelesTrak SupGP

Epoka: Sep 15, 2026, 03:36 UTC

1 66801C 25278L   26258.15048611  .00043162  00000+0  15631-2 0  2585
2 66801  43.0001 124.7899 0001497 270.0188 321.8085 15.27562045    13

Śledź STARLINK-36080 w czasie rzeczywistym z AllMySat

Download on the App Store